Location: *
(46.3500°N, 10.9000°E)
Time: 00:27:55
(UTC+00:00)

Vanguard 2 - Pass Details

Date: 28 April 2021
Orbit: 552 x 2938 km, 32.9° (Epoch: 12 May)

Event Time Altitude Azimuth Distance (km) Brightness Sun altitude
Rises 08:05:19 0° 217° (SW) 6,357 12.1 39.3°
Reaches altitude 10° 08:09:55 10° 208° (SSW) 5,548 12.0 40.0°
Maximum altitude 08:24:26 34° 152° (SSE) 4,077 12.5 42.3°
Drops below altitude 10° 08:38:14 10° 96° (E) 5,306 12.7 44.3°
Sets 08:42:28 0° 88° (E) 6,061 12.7 45.0°
